sat.trackr.live / text

‹ back to catalog

UNKNOWN

NORAD 84232

UNKNOWN UNKNOWN UNKNOWN

§ Identity

Operator
Country
Launch date
Launch site
Launch vehicle
Mass (kg)
RCS (m²)

External: N2YO · Heavens-Above

§ Orbital elements

Epoch: 2026-09-18T06:01:50.712960Z

Period
431.48 min
Inclination
20.3257°
Eccentricity
0.6444760
Mean motion
3.33738826 rev/d
Perigee alt
346.5 km
Apogee alt
24,726.5 km
Semi-major
18,914.6 km
B*
2.8464e-3
RAAN
106.1345°
Arg perigee
7.6935°
Mean anomaly
358.8124°
Rev number
11,381

§ Raw data

UNKNOWN1 84232U          26261.25128140  .00003738  00000+0  28464-2 0  99952 84232  20.3257 106.1345 6444760   7.6935 358.8124  3.33738826113819

JSON: /api/v1/satellites/84232 · /tle

For live sub-satellite position, see the globe view (requires WebGL).

§ Visibility from observer

Set your observer location to see the next 7 days of passes ≥ 10°. The values pass through the URL so the page stays shareable.

No JS? Fill the form by hand. The geolocation button needs JavaScript.